Tracking 33198 objects as of 14-Feb-2026
HD Live streaming from Space Station
objects crossing your sky now

STARLINK-5660

Track STARLINK-5660 now!
10-day predictions
STARLINK-5660 is classified as:


NORAD ID: 55335
Int'l Code: 2023-013E
Perigee: 565.5 km
Apogee: 566.9 km
Inclination: 43.0 °
Period: 95.8 minutes
Semi major axis: 6937 km
RCS: Unknown
Launch date: January 26, 2023
Source: United States (US)
Launch site: AIR FORCE EASTERN TEST RANGE (AFETR)
Your satellite tracking list
Your tracking list is empty




NASA's NSSDC Master Catalog

Two Line Element Set (TLE):
1 55335U 23013E   26044.07704029  .00000850  00000-0  78000-4 0  9997
2 55335  43.0004  74.3622 0001037 289.4497  70.6233 15.02542548168004
Source of the keplerian elements: AFSPC